Weather History for KACK - January, 2013

Change the Weather History Date:

Monday, January 7, 2013

  Actual Average Record
Temperature  
Mean Temperature 34 °F -  
Max Temperature 41 °F 40 °F 54 °F (1950)
Min Temperature 26 °F 25 °F 10 °F (1968)
Degree Days  
Heating Degree Days 32    
Moisture  
Dew Point 30 °F    
Average Humidity 82    
Maximum Humidity 96    
Minimum Humidity 67    
Precipitation  
Precipitation 0.00 in - - ()
Sea Level Pressure  
Sea Level Pressure 30.21 in    
Wind  
Wind Speed 8 mph (NW)    
Max Wind Speed 20 mph    
Max Gust Speed 25 mph    
Visibility 8 miles    
Events      
Averages and records for this station are not official NWS values.
T = Trace of Precipitation, MM = Missing Value Source: NWS Daily Summary

Daily Weather History Graph

Daily Weather History Graph

Search for Another Location

Airport or City:

Trip Planner

Search our weather history database for the weather conditions in past years. The results will help you decide how hot, cold, wet, or windy it might be!

Date:

Astronomy

Jan. 07, 2013 Rise Set
Actual Time 7:05 AM EST 4:27 PM EST
Civil Twilight 6:35 AM EST 4:58 PM EST
Nautical Twilight 6:00 AM EST 5:33 PM EST
Astronomical Twilight 5:27 AM EST 6:06 PM EST
Moon 2:25 AM EST (1/7) 12:36 PM EST (1/7)
Length of Visible Light 10h 23m
Length of Day
9h 21m
Waning Crescent, 23% of the Moon is Illuminated
Jan 7
Waning Crescent
Jan 11
New
Jan 18
First Quarter
Jan 26
Full
Feb 3
Last Quarter

Hourly Weather History & Observations

Time (EST) Temp. Windchill Dew Point Humidity Pressure Visibility Wind Dir Wind Speed Gust Speed Precip Events Conditions
12:53 AM 30.9 °F 25.2 °F 28.9 °F 92% 29.99 in 4.0 mi West 5.8 mph - N/A   Clear
1:10 AM 30.2 °F 25.4 °F 28.4 °F 93% 29.99 in 2.0 mi West 4.6 mph - N/A   Clear
1:24 AM 32.0 °F 27.5 °F 28.4 °F 87% 29.99 in 1.5 mi West 4.6 mph - N/A   Clear
1:34 AM 32.0 °F 27.5 °F 30.2 °F 93% 29.99 in 2.0 mi West 4.6 mph - N/A   Clear
1:53 AM 30.9 °F 25.2 °F 30.0 °F 96% 30.01 in 3.0 mi West 5.8 mph - N/A   Clear
2:53 AM 35.1 °F 28.6 °F 33.1 °F 92% 30.01 in 7.0 mi WNW 8.1 mph - N/A   Clear
3:53 AM 35.1 °F 27.9 °F 30.9 °F 85% 30.01 in 9.0 mi NW 9.2 mph - N/A   Clear
4:53 AM 35.1 °F 27.9 °F 30.0 °F 82% 30.01 in 10.0 mi WNW 9.2 mph - N/A   Clear
5:53 AM 36.0 °F 28.5 °F 30.9 °F 82% 30.05 in 10.0 mi NW 10.4 mph - N/A   Clear
6:53 AM 35.1 °F 27.9 °F 30.0 °F 82% 30.09 in 10.0 mi WNW 9.2 mph - N/A   Clear
7:53 AM 36.0 °F 28.5 °F 30.9 °F 82% 30.12 in 10.0 mi NW 10.4 mph - N/A   Clear
8:53 AM 37.9 °F 28.9 °F 30.9 °F 76% 30.17 in 10.0 mi NW 16.1 mph - N/A   Clear
9:53 AM 39.0 °F 30.6 °F 30.9 °F 73% 30.20 in 10.0 mi NW 15.0 mph 20.7 mph N/A   Clear
10:53 AM 41.0 °F 33.1 °F 32.0 °F 70% 30.21 in 10.0 mi NNW 15.0 mph - N/A   Clear
11:53 AM 41.0 °F 31.9 °F 30.9 °F 67% 30.22 in 10.0 mi North 19.6 mph 25.3 mph N/A   Clear
12:53 PM 41.0 °F 33.5 °F 32.0 °F 70% 30.25 in 10.0 mi NNW 13.8 mph 24.2 mph N/A   Clear
1:53 PM 39.9 °F 31.8 °F 33.1 °F 77% 30.28 in 10.0 mi NNW 15.0 mph - N/A   Overcast
2:44 PM 39.2 °F 30.5 °F 32.0 °F 75% 30.31 in 10.0 mi North 16.1 mph 20.7 mph N/A   Overcast
2:53 PM 39.0 °F 31.0 °F 30.9 °F 73% 30.32 in 10.0 mi North 13.8 mph - N/A   Mostly Cloudy
3:53 PM 37.0 °F 29.8 °F 30.0 °F 76% 30.35 in 10.0 mi North 10.4 mph - N/A   Scattered Clouds
4:53 PM 33.1 °F 26.9 °F 28.0 °F 82% 30.37 in 10.0 mi North 6.9 mph - N/A   Clear
5:53 PM 32.0 °F 26.4 °F 28.0 °F 85% 30.40 in 10.0 mi North 5.8 mph - N/A   Clear
6:53 PM 30.0 °F 26.5 °F 27.0 °F 88% 30.41 in 10.0 mi NNE 3.5 mph - N/A   Clear
7:53 PM 28.9 °F 25.2 °F 26.1 °F 89% 30.41 in 10.0 mi NE 3.5 mph - N/A   Clear
8:53 PM 26.1 °F 20.5 °F 23.0 °F 88% 30.41 in 10.0 mi East 4.6 mph - N/A   Clear
9:53 PM 30.0 °F 25.2 °F 26.1 °F 85% 30.40 in 10.0 mi ESE 4.6 mph - N/A   Clear
10:53 PM 32.0 °F 25.6 °F 28.0 °F 85% 30.41 in 10.0 mi SSE 6.9 mph - N/A   Clear
11:53 PM 35.1 °F 27.9 °F 30.0 °F 82% 30.40 in 10.0 mi South 9.2 mph - N/A   Clear